星链-11718 (STARLINK-11718)

导读

STARLINK-11718是美国SpaceX星链星座中的一颗卫星,于2025年5月24日发射升空。星链项目旨在构建全球卫星互联网星座,为全球偏远地区、海洋等网络覆盖薄弱区域提供高速互联网接入服务。该卫星加入星座后,将进一步扩充星链网络规模,提升全球网络服务覆盖能力与通信稳定性,支撑星链的全球服务布局。

基本信息
目录编号:
64132
目录名称:
STARLINK-11718
国际标识:
2025-111K
轨道中心:
EARTH
卫星名称:
星链-11718
卫星全名:
星链-11718 (STARLINK-11718)
卫星状态:
在轨 (已飞行475 天)
发射日期:
2025-05-24 UTC
国别 :
美国 (US)
星等 :
--
该卫星已列入 空间交会检测服务 Space Conjunction Data Service (SCDS) ,当前飞行风险评估等级: 高风险
轨道信息
数据来源 国际轨道数据
星历时间: 2026-09-11T11:37:06+0800
11小时前
查看轨道信息
半长轴: 6733.962km
偏心率: 0.0002001
轨道倾角: 42.998°
近地点辐角 250.165°
升交点赤经 296.277°
平近点角 109.900°
近地点: 354.477km
远地点: 357.173km
周期: 91.657分钟
每日圈数: 15.710746
详细信息
固有亮度:
5
最大亮度:
2.5
卫星平台:
Starlink V1.0
覆盖范围:
全球
运营商:
太空探索技术公司
运营商所在国:
美国
制造商(研发单位):
太空探索技术公司
制造商所在国:
美国
使用方式:
暂无
卫星简介
Starlink 计划是 SpaceX 推出的全球卫星互联网项目,通过发射低轨道卫星,为全球尤其是偏远地区提供高速、低延迟的互联网服务。自 2019 年起,Starlink 已部署数千颗卫星,旨在缩小全球数字鸿沟,推动互联网普及。该项目还为军事、航空等行业提供通信支持,带来广泛经济效益。
2D轨道图
3D轨道图
轨道高度分析图
轨道倾角分析图
轨道综合分析图
查看轨道综合分析图
交会数据列表
事件ID 空间交会对象 最接近时刻(TCA) 交会距离 交会风险概率(CRP) 交会风险指数(CRI) 操作
CDM_260912-120706-209406-413221
2026-09-12T
12:07:57+0000
0.391 km
远距离
2.085895E-4 高风险 0.81
CDM_260911-225406-413206-617622
OBJECT B (66176)
2026-09-11T
22:54:49+0000
1.754 km
极远距离
2.976188E-6 低风险 0.44
与全量物体交会距离演化趋势
与全量物体交会风险概率演化趋势